Date String (YYYY-MM-DD hh:mm:ss) UTC,Instrument flags,absolute air pressure of the measurement (hPa),sample flow rate (lpm),inlet stack bypass flow (lpm),air temperature of the measurement (°C),ambient temperature measured by the external sensor (°C),aerosol sample conditioner tube jacket temperature (°C),OPC LED temperature (°C),internal box temperature (°C),relative humidity of the measurement (%),span deviation,mass concentration of particles derived from Lorenz-Mie calculation of OPC scattering (μg/m³),mass concentration of particles derived from Lorenz-Mie calculation of OPC scattering (μg/m³),mass concentration of particles derived from Lorenz-Mie calculation of OPC scattering (μg/m³)
DateTimeUTC,F1_M11,P_M11,Q1_M11,Q2_M11,T1_M11,T2_M11,T3_M11,T4_M11,T5_M11,U1_M11,ZSPAN_M11,X2_M11,X0_M11,X1_M11
2023-06-20 18:00:00,SystemResetWarning,0828.6,4.99,000.00,030.2,028.2,000.0,038.5,031.5,30.5,0000.0,0005.71,0017.23,0004.34
2023-06-20 18:01:00,SystemResetWarning,0828.7,5.00,000.00,030.2,026.6,000.0,038.5,031.5,30.9,0000.0,0005.67,0016.02,0004.35
2023-06-20 18:02:00,SystemResetWarning,0828.6,5.00,000.00,030.1,024.8,000.0,038.4,031.3,30.3,0000.0,0005.58,0015.42,0004.35
2023-06-20 18:03:00,SystemResetWarning,0828.6,5.00,000.00,030.1,024.5,000.0,038.4,031.2,30.4,0000.0,0005.57,0016.28,0004.33
2023-06-20 18:04:00,SystemResetWarning,0828.6,5.01,000.00,030.0,024.8,000.0,038.3,030.9,30.7,0000.0,0005.56,0016.54,0004.32
2023-06-20 18:05:00,SystemResetWarning,0828.6,5.01,000.00,029.9,025.3,000.0,038.3,030.9,31.4,0000.0,0005.53,0017.00,0004.31
2023-06-20 18:06:00,SystemResetWarning,0828.6,4.99,000.00,029.8,025.8,000.0,038.3,030.8,31.7,0000.0,0005.50,0016.77,0004.30
2023-06-20 18:07:00,SystemResetWarning,0828.6,5.00,000.00,029.8,026.3,000.0,038.3,030.9,31.9,0000.0,0005.55,0017.55,0004.30
2023-06-20 18:08:00,SystemResetWarning,0828.6,4.99,000.00,029.8,026.7,000.0,038.3,030.9,31.9,0000.0,0005.60,0017.86,0004.30
2023-06-20 18:09:00,SystemResetWarning,0828.6,5.00,000.00,029.8,027.0,000.0,038.3,031.0,32.0,0000.0,0005.58,0017.60,0004.30
2023-06-20 18:10:00,SystemResetWarning,0828.6,5.00,000.00,029.8,027.3,000.0,038.3,031.0,32.1,0000.0,0005.61,0017.23,0004.29
2023-06-20 18:11:00,SystemResetWarning,0828.7,5.02,000.00,029.8,027.5,000.0,038.3,031.1,32.0,0000.0,0005.58,0017.75,0004.28
2023-06-20 18:12:00,SystemResetWarning,0828.7,5.00,000.00,029.8,027.7,000.0,038.3,031.2,32.3,0000.0,0005.61,0018.21,0004.28
2023-06-20 18:13:00,SystemResetWarning,0828.7,4.99,000.00,029.8,027.9,000.0,038.3,031.2,31.1,0000.0,0005.63,0018.61,0004.28
2023-06-20 18:14:00,SystemResetWarning,0828.7,5.00,000.00,029.9,028.1,000.0,038.3,031.3,32.1,0000.0,0005.66,0017.90,0004.29
2023-06-20 18:15:00,SystemResetWarning,0828.8,5.00,000.00,029.9,028.2,000.0,038.4,031.3,33.2,0000.0,0005.67,0017.34,0004.30
2023-06-20 18:16:00,SystemResetWarning,0828.8,5.00,000.00,029.9,028.3,000.0,038.4,031.4,33.7,0000.0,0005.64,0015.28,0004.28
2023-06-20 18:17:00,SystemResetWarning,0828.8,5.00,000.00,030.0,027.7,000.0,038.4,031.4,34.4,0000.0,0005.61,0014.76,0004.27
2023-06-20 18:18:00,SystemResetWarning,0828.7,5.00,000.00,030.0,025.6,000.0,038.3,031.4,35.5,0000.0,0005.55,0013.99,0004.27
2023-06-20 18:19:00,SystemResetWarning,0828.7,5.00,000.00,030.1,024.5,000.0,038.2,031.4,34.9,0000.0,0005.57,0013.48,0004.27
2023-06-20 18:20:00,SystemResetWarning,0828.7,4.99,000.00,030.2,024.6,000.0,038.2,031.2,34.9,0000.0,0005.55,0013.39,0004.27
2023-06-20 18:21:00,SystemResetWarning,0828.7,5.03,000.00,030.2,025.0,000.0,038.2,031.0,34.9,0000.0,0005.54,0013.55,0004.28
2023-06-20 18:22:00,SystemResetWarning,0828.7,4.97,000.00,030.4,025.5,000.0,038.3,031.1,34.5,0000.0,0005.52,0013.04,0004.27
2023-06-20 18:23:00,SystemResetWarning,0828.7,5.00,000.00,030.5,026.0,000.0,038.3,031.1,33.8,0000.0,0005.48,0012.80,0004.26
2023-06-20 18:24:00,SystemResetWarning,0828.7,5.01,000.00,030.5,026.5,000.0,038.4,031.1,33.9,0000.0,0005.51,0012.57,0004.25
2023-06-20 18:25:00,SystemResetWarning,0828.8,4.98,000.00,030.6,026.9,000.0,038.4,031.1,29.0,0000.0,0005.45,0012.08,0004.25
2023-06-20 18:26:00,SystemResetWarning,0828.8,5.01,000.00,030.6,027.2,000.0,038.5,031.1,25.2,0000.0,0005.42,0011.91,0004.25
2023-06-20 18:27:00,SystemResetWarning,0828.8,5.01,000.00,030.6,027.4,000.0,038.6,031.2,23.0,0000.0,0005.45,0011.86,0004.25
2023-06-20 18:28:00,SystemResetWarning,0828.8,4.98,000.00,030.6,027.7,000.0,038.6,031.3,23.0,0000.0,0005.46,0011.98,0004.22
2023-06-20 18:29:00,SystemResetWarning,0828.9,5.01,000.00,030.7,027.9,000.0,038.7,031.3,24.7,0000.0,0005.44,0012.72,0004.20
2023-06-20 18:30:00,SystemResetWarning,0828.9,5.01,000.00,030.7,028.0,000.0,038.7,031.4,23.7,0000.0,0005.37,0013.62,0004.14
2023-06-20 18:31:00,SystemResetWarning,0829.0,5.00,000.00,030.7,028.2,000.0,038.8,031.4,23.1,0000.0,0005.32,0013.98,0004.10
2023-06-20 18:32:00,SystemResetWarning,0829.0,5.00,000.00,030.7,028.3,000.0,038.8,031.5,23.1,0000.0,0005.28,0014.24,0004.04
2023-06-20 18:33:00,SystemResetWarning,0829.0,4.99,000.00,030.8,027.7,000.0,038.8,031.6,24.1,0000.0,0005.24,0014.19,0003.99
2023-06-20 18:34:00,SystemResetWarning,0828.9,5.00,000.00,030.8,025.8,000.0,038.8,031.5,24.9,0000.0,0005.21,0014.43,0003.94
2023-06-20 18:35:00,SystemResetWarning,0828.8,5.01,000.00,030.7,024.8,000.0,038.7,031.4,25.3,0000.0,0005.14,0014.22,0003.88
2023-06-20 18:36:00,SystemResetWarning,0828.8,5.01,000.00,030.6,024.9,000.0,038.7,031.2,24.0,0000.0,0005.09,0014.31,0003.83
2023-06-20 18:37:00,SystemResetWarning,0828.8,5.00,000.00,030.5,025.3,000.0,038.7,031.0,23.6,0000.0,0005.03,0015.23,0003.78
2023-06-20 18:38:00,SystemResetWarning,0828.7,5.00,000.00,030.4,025.8,000.0,038.7,031.0,22.3,0000.0,0004.98,0016.31,0003.75
2023-06-20 18:39:00,SystemResetWarning,0828.7,5.00,000.00,030.3,026.2,000.0,038.7,031.0,22.8,0000.0,0004.99,0016.73,0003.73
2023-06-20 18:40:00,SystemResetWarning,0828.8,5.00,000.00,030.3,026.6,000.0,038.7,031.0,21.4,0000.0,0004.97,0015.94,0003.70
2023-06-20 18:41:00,SystemResetWarning,0828.8,4.99,000.00,030.3,027.0,000.0,038.7,031.1,21.2,0000.0,0004.94,0014.93,0003.68
2023-06-20 18:42:00,SystemResetWarning,0828.8,5.00,000.00,030.3,027.3,000.0,038.7,031.2,21.3,0000.0,0004.93,0014.26,0003.66
2023-06-20 18:43:00,SystemResetWarning,0828.8,5.00,000.00,030.3,027.5,000.0,038.7,031.2,17.7,0000.0,0004.89,0013.76,0003.65
2023-06-20 18:44:00,SystemResetWarning,0828.8,5.01,000.00,030.3,027.8,000.0,038.7,031.3,17.5,0000.0,0004.93,0013.78,0003.63
2023-06-20 18:45:00,SystemResetWarning,0828.8,5.00,000.00,030.3,027.9,000.0,038.7,031.3,20.3,0000.0,0004.94,0013.35,0003.61
2023-06-20 18:46:00,SystemResetWarning,0828.8,5.00,000.00,030.3,028.1,000.0,038.7,031.4,20.8,0000.0,0004.93,0013.99,0003.58
2023-06-20 18:47:00,SystemResetWarning,0828.8,5.00,000.00,030.4,028.1,000.0,038.7,031.5,21.7,0000.0,0004.94,0013.87,0003.54
2023-06-20 18:48:00,SystemResetWarning,0828.8,4.98,000.00,030.4,026.4,000.0,038.7,031.5,21.4,0000.0,0004.93,0013.73,0003.51
2023-06-20 18:49:00,SystemResetWarning,0828.8,5.01,000.00,030.3,024.8,000.0,038.6,031.3,18.7,0000.0,0004.93,0013.68,0003.47
2023-06-20 18:50:00,SystemResetWarning,0828.7,5.01,000.00,030.3,024.8,000.0,038.5,031.3,20.3,0000.0,0004.92,0013.14,0003.47
2023-06-20 18:51:00,SystemResetWarning,0828.8,5.00,000.00,030.2,025.2,000.0,038.5,031.0,20.7,0000.0,0004.90,0012.84,0003.46
2023-06-20 18:52:00,SystemResetWarning,0828.7,5.00,000.00,030.1,025.6,000.0,038.5,030.9,23.0,0000.0,0004.90,0013.94,0003.46
2023-06-20 18:53:00,SystemResetWarning,0828.8,5.00,000.00,030.0,026.1,000.0,038.5,030.9,24.7,0000.0,0004.91,0014.09,0003.46
2023-06-20 18:54:00,SystemResetWarning,0828.7,5.00,000.00,030.0,026.5,000.0,038.5,031.0,24.6,0000.0,0004.94,0014.25,0003.47
2023-06-20 18:55:00,SystemResetWarning,0828.7,5.00,000.00,030.0,026.9,000.0,038.5,031.0,24.0,0000.0,0004.91,0015.09,0003.48
2023-06-20 18:56:00,SystemResetWarning,0828.7,4.99,000.00,030.0,027.2,000.0,038.5,031.1,24.0,0000.0,0004.94,0015.33,0003.51
2023-06-20 18:57:00,SystemResetWarning,0828.7,5.00,000.00,030.0,027.5,000.0,038.5,031.1,23.1,0000.0,0004.98,0015.54,0003.56
2023-06-20 18:58:00,SystemResetWarning,0828.7,5.00,000.00,030.0,027.7,000.0,038.5,031.2,24.1,0000.0,0005.00,0016.81,0003.60
2023-06-20 18:59:00,SystemResetWarning,0828.7,5.00,000.00,030.0,027.9,000.0,038.5,031.2,22.6,0000.0,0005.00,0017.57,0003.62
